Flag for U.S.A. Weather past 2 weeks in Augusta, Maine, U.S.A.

Now
33 °F

Rain. Fog.


Feels Like: 26 °F
Forecast: 37 / 50 °F
Wind: 8 mph from Northwest

Location: Augusta State Airport

Current Time: Dec 24, 2014 at 7:57:47 PM

Latest Report: Dec 24, 2014 at 6:53 PM


Visibility: 3 mi

Pressure: 29.83 "Hg

Humidity: 100%

Dew point: 33 °F

Location of AugustaLocation

Historic Weather in Augusta — Graph

°F

Augusta temperature yesterday

Maximum temperature yesterday: 34 °F (at 12:53 PM)
Minimum temperature yesterday: 31 °F (at 1:00 AM)
Average temperature yesterday: 32 °F

Past Weeks' High & Low Weather Summary

 TemperatureHumidityPressure
High38 °F (Dec 11, 9:53 AM)100% (Dec 10, 6:53 AM)30.45 "Hg (Dec 10, 6:53 AM)
Low18 °F (Dec 20, 6:53 AM)61% (Dec 19, 11:53 AM)29.46 "Hg (Dec 10, 6:53 PM)
Average31 °F88%29.97 "Hg
* Reported Dec 9 6:53 PM — Dec 24 6:53 PM, Augusta, Weather by CustomWeather, © 2014

Note: Actual official high and low records may vary slightly from our data, if they occured in-between our weather recording intervals... More about our weather records

Advertising

Augusta weather history for previous 24 hours

 ConditionsComfort  
Time TempWeatherWind HumidityBarometerVisibility
6:53 PM
Dec 24
33 °FRain. Fog.8 mph100%29.83 "Hg3 mi
5:53 PM34 °FLight rain. Fog.6 mph97%29.85 "Hg2 mi
4:53 PM34 °FFog.6 mph97%29.88 "Hg1 mi
3:53 PM34 °FFog.7 mph97%29.91 "Hg1 mi
2:53 PM34 °FFog.8 mph97%29.96 "Hg1 mi
1:53 PM34 °FLight rain. Fog.9 mph97%29.98 "Hg1 mi
12:53 PM34 °FLight rain. Fog.8 mph97%30.01 "Hg2 mi
11:53 AM34 °FLight rain. Fog.6 mph97%30.05 "Hg1 mi
10:53 AM33 °FLight rain. Fog.8 mph100%30.09 "Hg2 mi
9:53 AM33 °FFog.9 mph100%30.12 "Hg2 mi
8:53 AM33 °FFog.8 mph96%30.14 "Hg1 mi
7:53 AM33 °FFog.8 mph96%30.17 "Hg0 mi
6:53 AM33 °FFog.9 mph96%30.18 "Hg0 mi
5:53 AM33 °FFog.7 mph96%30.20 "Hg0 mi
4:53 AM33 °FFog.8 mph96%30.19 "Hg0 mi
3:53 AM33 °FFog.9 mph96%30.19 "Hg1 mi
2:53 AM33 °FFog.9 mph96%30.22 "Hg1 mi
1:53 AM33 °FFog.7 mph96%30.25 "Hg1 mi
12:53 AM33 °FFog.7 mph96%30.24 "Hg1 mi
11:53 PM
Dec 23
33 °FFog.8 mph96%30.25 "Hg1 mi
10:53 PM33 °FFog.8 mph96%30.27 "Hg1 mi
9:53 PM33 °FFog.8 mph96%30.27 "Hg1 mi
8:53 PM33 °FFog.10 mph96%30.29 "Hg1 mi
7:53 PM33 °FFog.8 mph100%30.29 "Hg1 mi
Weather by CustomWeather, © 2014

See weather overviewHow to use our weather pages